Location: Ahausen
(50.4985°N, 8.2722°E)
Time: 11:18:48
(UTC+00:00)

USA 234 - Pass Details

Date: 18 September 2020
Orbit: 1102 x 1106 km, 123.0° (Epoch: 16 October)

Event Time Altitude Azimuth Distance (km) Brightness Sun altitude
Rises 23:42:01 0° 83° (E) 3,920 6.3 -37.9°
Reaches altitude 10° 23:44:33 10° 79° (ENE) 2,963 5.7 -37.9°
Enters shadow 23:50:38 52° 12° (NNE) 1,357 3.9 -37.7°
Exits shadow 23:54:28 26° 303° (WNW) 2,042 4.8 -37.6°
Drops below altitude 10° 23:57:08 10° 292° (WNW) 2,967 5.6 -37.5°
Sets 23:59:40 0° 288° (WNW) 3,926 6.2 -37.5°
